Overview Statistics Trail Chart Weather Telemetry Raw packets
 

This is the latest recevied weather packets stored in our database for station/object IR9AK-10. If no packets are shown the sender has not sent any weather packets the latest 10 day(s).

<< 6 7 8 9 10 11 12 >>
Time Temp. Humidity Pressure Rain* Wind** Luminosity Snow
1788500166 38.89° C 34% 1061.8 hPa - - - -
1788499568 38.89° C 35% 1061.9 hPa - - - -
1788498968 38.33° C 35% 1061.9 hPa - - - -
1788498369 38.33° C 35% 1061.9 hPa - - - -
1788497770 38.33° C 46% 1061.7 hPa - - - -
1788497170 38.33° C 35% 1061.7 hPa - - - -
1788496570 38.33° C 35% 1061.5 hPa - - - -
1788495971 38.33° C 35% 1061.4 hPa - - - -
1788495373 38.33° C 34% 1061.5 hPa - - - -
1788494775 38.33° C 34% 1061.5 hPa - - - -
1788494175 38.33° C 34% 1061.5 hPa - - - -
1788493577 37.78° C 34% 1061.5 hPa - - - -
1788492977 37.78° C 35% 1061.2 hPa - - - -
1788492378 37.78° C 34% 1061.2 hPa - - - -
1788491780 38.33° C 36% 1061.2 hPa - - - -
1788491181 38.89° C 37% 1061.2 hPa - - - -
1788490582 38.33° C 37% 1061.2 hPa - - - -
1788489982 38.33° C 35% 1061.2 hPa - - - -
1788489382 38.33° C 35% 1061.2 hPa - - - -
1788488782 38.33° C 35% 1061.2 hPa - - - -
1788488182 37.78° C 35% 1061.2 hPa - - - -
1788487583 37.78° C 35% 1061.2 hPa - - - -
1788486983 38.33° C 36% 1061.2 hPa - - - -
1788486383 38.33° C 35% 1061.3 hPa - - - -
1788485784 38.33° C 35% 1061.2 hPa - - - -

* Rain since midnight (hover to see other rain measurements)
** Current wind speed in m/s (hover to see current wind gust speed)